Regional Weather Roundup
Issued by NWS

Home | Current Version | Previous Version | Graphics & Text | Print | Product List | Glossary On
Versions: 1 2 3 4 5 6 7 8 9 10 11 12 13 14 15 16 17 18 19 20 21 22 23 24 25 26 27 28 29 30 31 32 33 34 35 36 37 38 39 40 41 42 43 44 45 46 47 48 49 50
000
ASUS45 KBOI 280410
RWRID
WEATHER ROUNDUP FOR IDAHO
NATIONAL WEATHER SERVICE BOISE ID
1000 PM MDT SUN JUL 27 2014

NOTE: "FAIR" INDICATES FEW OR NO CLOUDS BELOW 12000 FEET
WITH NO SIGNIFICANT WEATHER AND/OR OBSTRUCTIONS TO VISIBILITY

IDZ012-014-280500-
SOUTHWEST IDAHO


CITY           SKY/WX    TMP DP  RH WIND       PRES   REMARKS
BOISE          MOCLDY    90  45  21 W6        29.98S
CALDWELL       MOCLDY    88  52  29 CALM      29.98S
MOUNTAIN HOME  MOCLDY    91  30  11 NW7       29.99R
$$

IDZ016-017-280500-
SOUTHCENTRAL IDAHO


CITY           SKY/WX    TMP DP  RH WIND       PRES   REMARKS
BURLEY         MOCLDY    77  50  38 SW7       30.09R
JEROME         CLOUDY    85  42  22 NW7       30.08S
TWIN FALLS     CLOUDY    87  35  15 SW7       30.09R
$$

IDZ019>023-280500-
SOUTHEAST IDAHO


CITY           SKY/WX    TMP DP  RH WIND       PRES   REMARKS
IDAHO FALLS    PTCLDY    70  46  42 CALM      30.17R
POCATELLO      CLEAR     75  39  27 E7        30.13R
REXBURG        CLEAR     71  49  45 CALM      30.18S
$$

IDZ006-010-011-018-031-032-280500-
CENTRAL IDAHO MOUNTAINS


CITY           SKY/WX    TMP DP  RH WIND       PRES   REMARKS
MCCALL         PTCLDY    79  32  18 N12       30.19R
HAILEY         MOCLDY    72  46  40 CALM      30.20R
STANLEY          N/A     77  24  14 CALM      30.30R
SALMON         CLEAR     75  30  19 E3        30.09R
CHALLIS        PTCLDY    79  27  14 NW6       30.18R
$$

IDZ002-004-006-007-026-280500-
NORTHERN IDAHO


CITY           SKY/WX    TMP DP  RH WIND       PRES   REMARKS
LEWISTON       PTCLDY    90  39  16 E3        29.98S
LOWELL           N/A     72  55  55 N5        30.02R
COEUR D`ALENE  MOCLDY    75  46  35 E7        30.09R
MULLAN PASS    PTCLDY    68  36  30 CALM      30.35S
$$


USA.gov is the U.S. government's official web portal to all federal, state and local government web resources and services.